Regional Weather Roundup
Issued by NWS Upton, NY

Current Version | Previous Version | Text Only | Print | Product List | Glossary Off
Versions: 1 2 3 4 5 6 7 8 9 10 11 12 13 14 15 16 17 18 19 20 21 22 23 24 25 26 27 28 29 30 31 32 33 34 35 36 37 38 39 40 41 42 43 44 45 46 47 48 49 50
000 ASUS41 KOKX 302108 RWROKX REGIONAL WEATHER ROUNDUP NATIONAL WEATHER SERVICE NEW YORK NY 500 PM EDT SAT MAY 30 2015 NOTE: "FAIR" INDICATES FEW OR NO CLOUDS BELOW 12,000 FEET WITH NO SIGNIFICANT WEATHER AND/OR OBSTRUCTIONS TO VISIBILITY. NYZ071-072-176-178-NJZ106-104-302200- NEW YORK CITY METRO AREA CITY SKY/WX TMP DP RH WIND PRES REMARKS CENTRAL PARK MOSUNNY 79 61 53 S9 30.10F LAGUARDIA APRT PTSUNNY 79 61 53 S18G29 30.07F KENNEDY INTL MOSUNNY 75 62 64 S25G37 30.10F NEWARK/LIBERTY PTSUNNY 83 65 54 S13 30.05F BRNX BOT. GARD N/A 75 61 60 SE14 30.10F TETERBORO MOSUNNY 83 63 50 S13 30.05F $$ NYZ177-179-078>081-302200- LONG ISLAND NEW YORK CITY SKY/WX TMP DP RH WIND PRES REMARKS FARMINGDALE SUNNY 77 64 64 S15G29 30.11F ISLIP MOSUNNY 74 63 68 S17G28 30.11F SHIRLEY SUNNY 73 63 70 S18G26 30.14F WESTHAMPTON SUNNY 73 63 70 S12G22 30.15F MONTAUK POINT N/A 71 63 75 S10G18 30.15F $$ NYZ052-065-067-302200- HUDSON VALLEY CITY SKY/WX TMP DP RH WIND PRES REMARKS WHITE PLAINS MOSUNNY 78 63 59 S10 30.09F NEWBURGH PTSUNNY 82 68 61 W12G17 30.06 MONTGOMERY MOSUNNY 84 68 58 S9 30.04F POUGHKEEPSIE SUNNY 85 66 53 S10G20 30.04F ALBANY PTSUNNY 82 67 60 S9 29.98F $$ NJZ001-105-106-008-010-013-015-019>022-104-302200- NEW JERSEY CITY SKY/WX TMP DP RH WIND PRES REMARKS NEWARK/LIBERTY PTSUNNY 83 65 54 S13 30.05F TETERBORO MOSUNNY 83 63 50 S13 30.05F CALDWELL PTSUNNY 87 65 47 VRB6 30.05F MORRISTOWN PTSUNNY 90 66 45 SW14G20 30.05F HX 92 SOMERVILLE MOSUNNY 85 64 49 S9 30.04F SUSSEX CLOUDY 83 64 52 SW7 30.07F ANDOVER N/A 84 65 52 SW12G17 30.06F TRENTON PTSUNNY 87 64 46 S12 30.06F MILLVILLE SUNNY 80 64 58 S16G24 30.12F ATLANTIC CITY SUNNY 78 64 61 S18G26 30.13F WRIGHTSTOWN MOSUNNY 85 66 52 S10G21 30.06F TOMS RIVER SUNNY N/A N/A N/A S16G25 30.10F BELMAR SUNNY 81 64 57 SE15 30.10S $$ PAZ047>061-062-071-302200- EASTERN PENNSYLVANIA CITY SKY/WX TMP DP RH WIND PRES REMARKS PHILADELPHIA MOSUNNY 86 64 47 S16 30.08F ALLENTOWN MOSUNNY 87 62 43 S15G23 30.05F SCRANTON PTSUNNY 84 63 49 SW13 30.04S $$ CTZ002-004>006-009-010-012-RIZ004-006-007-MAZ004-011-015-302200- SOUTHERN NEW ENGLAND IN CT CITY SKY/WX TMP DP RH WIND PRES REMARKS BRADLEY INTL MOSUNNY 84 64 50 S20G28 30.05F HARTFORD MOSUNNY 82 64 54 S14G28 30.07S DANBURY SUNNY 79 64 60 S12G18 30.09F WTRBRY/OXFORD MOSUNNY 79 64 61 S10G16 30.12S BRIDGEPORT SUNNY 78 63 59 S14 30.10F MERIDEN SUNNY 81 62 52 S23G31 30.08F NEW HAVEN MOSUNNY 75 63 66 S10G18 30.11F CHESTER FAIR 75 64 69 S13G23 30.13F GROTON SUNNY 70 62 76 SW13 30.13F WILLIMANTIC SUNNY 81 62 52 SW14G23 30.09F IN RI CITY SKY/WX TMP DP RH WIND PRES REMARKS PROVIDENCE MOSUNNY 80 62 54 SW22G32 30.11F BLOCK ISLAND SUNNY 70 61 73 SW18 30.15F WESTERLY SUNNY 73 62 68 SW14G24 30.15F IN MA CITY SKY/WX TMP DP RH WIND PRES REMARKS BOSTON MOSUNNY 85 60 42 SW21 30.03F WORCESTER MOSUNNY 82 61 48 S15G28 30.09F WESTFIELD MOSUNNY 85 63 47 S17G28 30.03F PROVINCETOWN SUNNY 72 63 73 SW22 30.11F NANTUCKET SUNNY 67 61 81 S13 30.17F $$ ANZ330-335-338-340-345-350-353-355-302200- COASTAL MARINE OBSERVATIONS STATION/POSITION TIME SKY/WX TEMP WIND PRES VSBY WAVE AIR SEA DIR/SP/G HT/PER (UTC) (F) (DEG/KT/KT) (MB) (MI) (FT/S) NY HARB ENTRANCE 2050 66 62 180/ 17/ 19 1018.8 4/ 9 4S FIRE IS 2003 61 N/A 4/ 9 20S FIRE ISLAND 2050 64 60 180/ 16/ 17 1020.0 3/10 GREAT SOUTH BAY 2000 67 71 220/ 14/ 17 N/A 23SW MTP 2050 62 58 200/ 12/ 14 1020.5 3/10 HUDSON CANYON NOT AVBL KINGS POINT 2000 74 64 190/ 17/ 21 1018.8 CENTRAL LI SOUND 2030 68 61 200/ 12/ 16 N/A EASTERN LI SOUND 2000 65 220/ 10/ 12 N/A ROBBINS REEF 2000 67 170/ 18/ 20 1017.8 $$ >>>>>>>>>>>>>>>>>>>>>>>>>>>> KEY <<<<<<<<<<<<<<<<<<<<<<<<<<< > < > SKY/WX - SKY CONDITION/PRESENT WEATHER < > TMP - TEMPERATURE IN FAHRENHEIT < > DP - DEWPOINT IN FAHRENHEIT < > RH - RELATIVE HUMIDITY IN PERCENT < > WIND - DIRECTION AND SPEED IN MPH < > PRES - MEAN SEA LEVEL PRESSURE IN INCHES OF HG < > WCI - WIND CHILL INDEX < > VSB - VISIBILITY IN MILES < > HX - HEAT INDEX < > TC - TEMPERATURE IN CELSIUS < > VRB - VARIABLE WIND DIRECTION < > < >>>>>>>>>>>>>>>>>>>>>>>>>>>> KEY <<<<<<<<<<<<<<<<<<<<<<<<<<<

USA.gov is the U.S. government's official web portal to all federal, state and local government web resources and services.